Location: LDNL
(36.4545°S, 141.6685°E)
Time: 04:43:39
(UTC+11:00)

Vanguard 2 - Pass Details

Date: 19 August 2022
Orbit: 552 x 2934 km, 32.9° (Epoch: 06 October)

Event Time Altitude Azimuth Distance (km) Brightness Sun altitude
Rises 12:30:22 0° 338° (NNW) 5,869 12.8 40.7°
Reaches altitude 10° 12:34:46 10° 349° (N) 5,162 12.9 40.7°
Maximum altitude 12:47:25 29° 41° (NE) 4,297 12.3 40.7°
Drops below altitude 10° 13:01:11 10° 92° (E) 5,688 12.0 40.4°
Sets 13:06:15 0° 101° (ESE) 6,547 12.1 40.3°
